Regional Weather Roundup
Issued by NWS

Home | Current Version | Previous Version | Graphics & Text | Print | Product List | Glossary On
Versions: 1 2 3 4 5 6 7 8 9 10 11 12 13 14 15 16 17 18 19 20 21 22 23 24 25 26 27 28
000
ASUS45 KSLC 251410
RWRUT

UTAH REGIONAL WEATHER ROUNDUP
NATIONAL WEATHER SERVICE SALT LAKE CITY UT
800 AM MDT THU AUG 25 2016

UTZ001>011-023>025-251500-

NORTHERN UTAH

CITY           SKY/WX    TMP DP  RH WIND       PRES   REMARKS
BRIGHAM CITY     N/A     53  33  46 NW8       30.13S
HILL AFB       MOSUNNY   56  25  29 E18       30.12F
LOGAN          MOSUNNY   47  36  65 W3        30.17R
OGDEN          SUNNY     60  27  28 VRB3      30.10F
PROVO AIRPORT  PTSUNNY   55  27  33 CALM      30.13S
SALT LAKE CITY PTSUNNY   58  35  42 S6        30.10S
VERNAL         CLOUDY    54  32  43 SW5       30.22R
WENDOVER       PTSUNNY   64  25  22 SW3       30.11S
HEBER CITY     MOSUNNY   45  32  61 CALM      30.22R
WEST JORDAN    SUNNY     59  28  29 W6        30.13R

$$

UTZ012>022-026-027-251500-

SOUTHERN/CENTRAL UTAH

CITY           SKY/WX    TMP DP  RH WIND       PRES   REMARKS
BLANDING       MOSUNNY   57  44  62 CALM      30.31S
BRYCE CANYON   SUNNY     45  40  82 SW3       30.32S
CEDAR CITY     MOSUNNY   59  41  51 W3        30.16R
DELTA          MOSUNNY   54  21  28 MISG      30.12R
MILFORD        MOSUNNY   53  25  33 SW5       30.14R
MOAB/CYNLANDS  MOSUNNY   65  42  43 SE9       30.12R
PRICE          PTSUNNY   58  23  26 SW5       30.19R
ST GEORGE      MOSUNNY   73  46  38 SE6       30.03S

$$

REGIONAL REPORTS     COLORADO/ARIZONA

CITY           SKY/WX    TMP DP  RH WIND       PRES   REMARKS
CRAIG, CO      SUNNY     48  38  68 CALM      30.30R
GRAND JUNCTION MOSUNNY   61  45  55 E14       30.18R
RIFLE          SUNNY     52  44  74 CALM      30.24R
MONTROSE       SUNNY     53  42  66 SE5       30.27R
CORTEZ         SUNNY     53  47  79 CALM      30.25F
PAGE, AZ       MOSUNNY   67  47  48 CALM      30.12R
GRAND CANYON   SUNNY     49  42  77 CALM      30.30R
KINGMAN        SUNNY     70  54  56 SE10      30.06R
FLAGSTAFF      SUNNY     50  47  89 CALM      30.33R

$$

REGIONAL REPORTS    NEVADA/IDAHO/WYOMING

CITY           SKY/WX    TMP DP  RH WIND       PRES   REMARKS
LAS VEGAS, NV  PTCLDY    82  37  20 CALM      29.89R
ELY            CLOUDY    45  19  35 S9        30.21S
ELKO           PTCLDY    50  28  42 CALM      30.17R
POCATELLO, ID  SUNNY     49  36  61 NE6       30.21S
EVANSTON, WY   CLOUDY    45  35  68 E13       30.30S
ROCK SPRINGS   NOT AVBL

$$




USA.gov is the U.S. government's official web portal to all federal, state and local government web resources and services.